Location: Hemaruka
(51.7801°N, 111.0917°W)
Time: 06:56:31
(UTC+00:00)

Envisat - Visible Passes

Search period start: 23 April 2024 00:00
Search period end: 03 May 2024 00:00
Orbit: 762 x 764 km, 98.3° (Epoch: 22 April)

Date Brightness Start Highest point End Pass type
(mag) Time Alt. Az. Time Alt. Az. Time Alt. Az.
23 Apr 4.0 10:25:12 10° NNE 10:30:05 45° E 10:34:56 10° S visible
24 Apr 5.0 09:48:24 10° NE 09:52:26 23° E 09:56:27 10° SE visible
24 Apr 3.1 11:26:48 10° N 11:31:49 60° WNW 11:36:47 10° SSW visible
25 Apr 5.7 09:12:52 10° ENE 09:14:35 12° E 09:16:16 10° ESE visible
25 Apr 3.3 10:49:23 10° NNE 10:54:30 71° ESE 10:59:33 10° S visible
26 Apr 4.4 10:12:18 10° NNE 10:16:59 36° E 10:21:38 10° SSE visible
27 Apr 5.3 09:35:44 10° NE 09:39:16 19° E 09:42:45 10° SE visible
27 Apr 3.0 11:13:43 10° NNE 11:18:49 76° WNW 11:23:52 10° SSW visible
28 Apr 3.6 10:36:25 10° NNE 10:41:26 56° E 10:46:24 10° S visible
29 Apr 4.7 09:59:27 10° NNE 10:03:51 28° E 10:08:12 10° SSE visible
30 Apr 5.5 09:23:15 10° NE 09:26:03 15° E 09:28:49 10° ESE visible
30 Apr 3.1 11:00:40 10° NNE 11:05:47 87° ESE 11:10:53 10° SSW visible
01 May 4.0 10:23:28 10° NNE 10:28:20 44° E 10:33:10 10° S visible
02 May 5.1 09:46:40 10° NE 09:50:41 23° E 09:54:39 10° SE visible
